• In Uzbekistan
  • List of Countries
  • For 7 days
  • Water Temperature
  • Satellite Maps
  • Weather Map
  • Weather Widgets
  • user-avatar
    Login

    Hourly Weather Chemodurovo

    Today, 21 May, Monday

    Time Temperature Precipitation Wind Pressure Humidity
    00:00 +12°C° 0 mm 3 mps 742 mmHg 93%
    01:00 +11°C° 0 mm 3 mps 742 mmHg 94%
    02:00 +10°C° 0 mm 3 mps 743 mmHg 94%
    03:00 +9°C° 0 mm 2 mps 743 mmHg 94%
    04:00 +8°C° 0 mm 2 mps 744 mmHg 94%
    05:00 +9°C° 0 mm 2 mps 744 mmHg 90%
    06:00 +9°C° 0 mm 3 mps 745 mmHg 86%
    07:00 +9°C° 0 mm 3 mps 745 mmHg 82%
    08:00 +10°C° 0 mm 3 mps 745 mmHg 77%
    09:00 +12°C° 0 mm 3 mps 746 mmHg 72%
    10:00 +13°C° 0 mm 4 mps 746 mmHg 66%
    11:00 +13°C° 0 mm 4 mps 746 mmHg 63%
    12:00 +14°C° 0 mm 4 mps 747 mmHg 60%
    13:00 +15°C° 0 mm 4 mps 747 mmHg 57%
    14:00 +15°C° 0 mm 4 mps 747 mmHg 58%
    15:00 +15°C° 0 mm 4 mps 747 mmHg 59%
    16:00 +14°C° 0 mm 4 mps 747 mmHg 60%
    17:00 +14°C° 0 mm 4 mps 748 mmHg 62%
    18:00 +14°C° 0 mm 3 mps 748 mmHg 64%
    19:00 +14°C° 0 mm 2 mps 748 mmHg 67%
    20:00 +13°C° 0 mm 2 mps 749 mmHg 69%
    21:00 +12°C° 0 mm 2 mps 749 mmHg 71%
    22:00 +9°C° 0 mm 2 mps 749 mmHg 74%
    23:00 +9°C° 0 mm 2 mps 750 mmHg 71%

    Tomorrow, 22 May, Tuesday

    Time Temperature Precipitation Wind Pressure Humidity
    00:00 +8°C° 0 mm 2 mps 750 mmHg 69%
    01:00 +8°C° 0 mm 2 mps 750 mmHg 67%
    02:00 +8°C° 0 mm 2 mps 750 mmHg 66%
    03:00 +7°C° 0 mm 2 mps 751 mmHg 66%
    04:00 +7°C° 0 mm 2 mps 751 mmHg 65%
    05:00 +9°C° 0 mm 1 mps 751 mmHg 63%
    06:00 +11°C° 0 mm 1 mps 752 mmHg 62%
    07:00 +12°C° 0 mm 1 mps 752 mmHg 60%
    08:00 +14°C° 0 mm 2 mps 752 mmHg 56%
    09:00 +16°C° 0 mm 2 mps 752 mmHg 52%
    10:00 +17°C° 0 mm 3 mps 753 mmHg 47%
    11:00 +18°C° 0 mm 3 mps 752 mmHg 46%
    12:00 +19°C° 0 mm 3 mps 752 mmHg 44%
    13:00 +20°C° 0 mm 3 mps 752 mmHg 43%
    14:00 +20°C° 0 mm 3 mps 752 mmHg 44%
    15:00 +21°C° 0 mm 3 mps 752 mmHg 44%
    16:00 +21°C° 0 mm 3 mps 751 mmHg 45%
    17:00 +20°C° 0 mm 3 mps 751 mmHg 50%
    18:00 +20°C° 0 mm 2 mps 751 mmHg 56%
    19:00 +19°C° 0 mm 2 mps 751 mmHg 61%
    20:00 +18°C° 0 mm 2 mps 751 mmHg 65%
    21:00 +16°C° 0 mm 2 mps 751 mmHg 68%
    22:00 +14°C° 0 mm 1 mps 751 mmHg 71%
    23:00 +14°C° 0 mm 1 mps 751 mmHg 72%

    Day after tomorrow, 23 May, Wednesday

    Time Temperature Precipitation Wind Pressure Humidity
    00:00 +13°C° 0 mm 1 mps 751 mmHg 73%
    01:00 +13°C° 0 mm 1 mps 751 mmHg 75%
    02:00 +13°C° 0 mm 1 mps 751 mmHg 76%
    03:00 +12°C° 0 mm 1 mps 751 mmHg 77%
    04:00 +12°C° 0 mm 1 mps 752 mmHg 79%
    05:00 +13°C° 0 mm 1 mps 752 mmHg 75%
    06:00 +15°C° 0 mm 1 mps 752 mmHg 71%
    07:00 +16°C° 0 mm 1 mps 752 mmHg 67%
    08:00 +19°C° 0 mm 1 mps 752 mmHg 62%
    09:00 +20°C° 0 mm 1 mps 752 mmHg 57%
    10:00 +22°C° 0 mm 1 mps 752 mmHg 52%
    11:00 +23°C° 0 mm 2 mps 752 mmHg 50%
    12:00 +24°C° 0 mm 2 mps 751 mmHg 47%
    13:00 +24°C° 0 mm 3 mps 751 mmHg 44%
    14:00 +25°C° 0 mm 3 mps 750 mmHg 44%
    15:00 +25°C° 0 mm 3 mps 750 mmHg 44%
    16:00 +25°C° 0 mm 3 mps 750 mmHg 44%
    17:00 +24°C° 0 mm 3 mps 749 mmHg 50%
    18:00 +24°C° 0 mm 2 mps 749 mmHg 55%
    19:00 +23°C° 0 mm 2 mps 748 mmHg 61%
    20:00 +20°C° 0 mm 2 mps 748 mmHg 64%
    21:00 +18°C° 0 mm 2 mps 748 mmHg 67%
    22:00 +17°C° 0 mm 2 mps 748 mmHg 71%
    23:00 +16°C° 0 mm 2 mps 747 mmHg 72%

    24 May, Thursday

    Time Temperature Precipitation Wind Pressure Humidity
    00:00 +16°C° 0 mm 2 mps 747 mmHg 73%
    01:00 +16°C° 0 mm 2 mps 747 mmHg 74%
    02:00 +15°C° 0 mm 2 mps 746 mmHg 76%
    03:00 +15°C° 0 mm 2 mps 746 mmHg 77%
    04:00 +13°C° 0 mm 3 mps 746 mmHg 79%
    05:00 +16°C° 0 mm 3 mps 746 mmHg 75%
    06:00 +17°C° 0 mm 3 mps 745 mmHg 72%
    07:00 +18°C° 0 mm 4 mps 745 mmHg 68%
    08:00 +19°C° 0 mm 4 mps 745 mmHg 64%
    09:00 +20°C° 0 mm 5 mps 745 mmHg 60%
    10:00 +22°C° 0 mm 5 mps 744 mmHg 56%
    11:00 +23°C° 0 mm 5 mps 744 mmHg 55%
    12:00 +23°C° 0 mm 5 mps 744 mmHg 54%
    13:00 +25°C° 0 mm 5 mps 743 mmHg 53%
    14:00 +25°C° 0 mm 5 mps 743 mmHg 53%
    15:00 +25°C° 0 mm 5 mps 743 mmHg 53%
    16:00 +26°C° 0 mm 5 mps 742 mmHg 53%
    17:00 +23°C° 0.5 mm 5 mps 742 mmHg 59%
    18:00 +22°C° 0.5 mm 4 mps 742 mmHg 66%
    19:00 +21°C° 0.5 mm 4 mps 741 mmHg 72%
    20:00 +20°C° 0.6 mm 4 mps 741 mmHg 77%
    21:00 +18°C° 0.6 mm 4 mps 741 mmHg 82%
    22:00 +17°C° 0.6 mm 4 mps 741 mmHg 86%
    23:00 +17°C° 0.3 mm 3 mps 741 mmHg 88%

    25 May, Friday

    Time Temperature Precipitation Wind Pressure Humidity
    00:00 +16°C° 0.3 mm 3 mps 741 mmHg 89%
    01:00 +16°C° 0.3 mm 2 mps 741 mmHg 91%
    02:00 +15°C° 0.3 mm 2 mps 741 mmHg 93%
    03:00 +14°C° 0.3 mm 3 mps 741 mmHg 94%
    04:00 +14°C° 0.3 mm 3 mps 741 mmHg 96%
    05:00 +13°C° 0.5 mm 4 mps 742 mmHg 94%
    06:00 +12°C° 0.5 mm 4 mps 742 mmHg 93%
    07:00 +12°C° 0.5 mm 5 mps 742 mmHg 92%
    08:00 +10°C° 0.2 mm 5 mps 743 mmHg 90%
    09:00 +9°C° 0.2 mm 6 mps 743 mmHg 88%
    10:00 +9°C° 0.2 mm 6 mps 743 mmHg 86%
    11:00 +9°C° 0.1 mm 6 mps 744 mmHg 82%
    12:00 +9°C° 0.1 mm 6 mps 744 mmHg 78%
    13:00 +9°C° 0.1 mm 6 mps 744 mmHg 74%
    14:00 +10°C° 0 mm 6 mps 745 mmHg 67%
    15:00 +11°C° 0 mm 6 mps 745 mmHg 61%
    16:00 +13°C° 0 mm 6 mps 745 mmHg 54%
    17:00 +13°C° 0 mm 5 mps 745 mmHg 56%
    18:00 +12°C° 0 mm 5 mps 746 mmHg 59%
    19:00 +11°C° 0 mm 4 mps 746 mmHg 61%
    20:00 +10°C° 0 mm 4 mps 746 mmHg 62%
    21:00 +8°C° 0 mm 4 mps 747 mmHg 63%
    22:00 +6°C° 0 mm 4 mps 747 mmHg 64%
    23:00 +6°C° 0 mm 4 mps 747 mmHg 64%

    26 May, Saturday

    Time Temperature Precipitation Wind Pressure Humidity
    00:00 +5°C° 0 mm 4 mps 748 mmHg 64%
    01:00 +4°C° 0 mm 4 mps 748 mmHg 64%
    02:00 +4°C° 0 mm 4 mps 748 mmHg 64%
    03:00 +3°C° 0 mm 4 mps 749 mmHg 65%
    04:00 +3°C° 0 mm 4 mps 749 mmHg 65%
    05:00 +2°C° 0 mm 5 mps 750 mmHg 62%
    06:00 +3°C° 0 mm 5 mps 750 mmHg 60%
    07:00 +4°C° 0 mm 6 mps 750 mmHg 57%
    08:00 +5°C° 0 mm 6 mps 751 mmHg 54%
    09:00 +7°C° 0 mm 6 mps 751 mmHg 51%
    10:00 +9°C° 0 mm 6 mps 751 mmHg 48%
    11:00 +10°C° 0 mm 6 mps 751 mmHg 47%
    12:00 +11°C° 0 mm 6 mps 751 mmHg 46%
    13:00 +13°C° 0 mm 6 mps 751 mmHg 45%
    14:00 +13°C° 0 mm 6 mps 751 mmHg 46%
    15:00 +14°C° 0 mm 5 mps 751 mmHg 46%
    16:00 +14°C° 0 mm 5 mps 750 mmHg 47%
    17:00 +14°C° 0 mm 4 mps 750 mmHg 52%
    18:00 +13°C° 0 mm 3 mps 750 mmHg 57%
    19:00 +14°C° 0 mm 2 mps 750 mmHg 62%
    20:00 +13°C° 0 mm 2 mps 750 mmHg 65%
    21:00 +10°C° 0 mm 2 mps 750 mmHg 69%
    22:00 +9°C° 0 mm 2 mps 750 mmHg 72%
    23:00 +8°C° 0 mm 2 mps 750 mmHg 74%
    Show more